Tracking 26935 objects as of 4-Feb-2023
HD Live streaming from Space Station
objects crossing your sky now

STARLINK-3668

Track STARLINK-3668 now!
10-day predictions
STARLINK-3668 is classified as:


NORAD ID: 52002
Int'l Code: 2022-025AY
Perigee: 545.9 km
Apogee: 547.8 km
Inclination: 53.2 °
Period: 95.4 minutes
Semi major axis: 6917 km
RCS: Unknown
Launch date: March 9, 2022
Source: United States (US)
Launch site: AIR FORCE EASTERN TEST RANGE (AFETR)
Your satellite tracking list
Your tracking list is empty




NASA's NSSDC Master Catalog

Two Line Element Set (TLE):
1 52002U 22025AY  23034.37018332  .00001241  00000-0  96025-4 0  9993
2 52002  53.2173  53.3276 0001419  90.2977 269.8177 15.08846145 51791
Source of the keplerian elements: AFSPC